Theta_e
303 302 300 300 300 299 300 298 297 297 298 298 300 302 303 304 305 307 307 307 307 308 309 310 309 311 311
300 299 300 299 299 299 297 296 296 295 296 296 297 298 300 301 302 303 303 304 304 305 306 306 306 305 304
300 299 298 297 297 296 295 294 293 293 293 292 293 295 296 297 298 299 299 300 300 301 301 301 301 301 301
299 297 297 295 295 293 294 293 292 291 290 291 290 291 291 292 292 293 295 296 296 297 297 298 298 298 298
297 296 295 294 293 293 291 290 290 289 288 287 287 287 287 288 288 287 286 288 291 294 294 294 295 295 295
296 295 294 293 292 289 288 287 287 287 286 285 285 285 285 285 286 286 286 286 285 284 287 291 292 293 293
294 293 292 292 290 288 287 287 286 286 285 284 285 285 286 286 286 286 286 286 287 288 286 286 286 287 288
289 289 289 289 288 287 286 285 285 285 284 284 284 285 286 285 286 286 286 287 287 287 288 288 289 289 290
286 287 287 286 286 286 286 286 284 284 284 284 284 285 285 286 286 286 286 287 287 287 286 288 289 289 289
284 283 282 282 282 282 283 284 284 284 284 284 284 284 284 286 285 285 286 286 286 286 286 286 287 287 287
284 282 282 282 282 282 282 282 283 284 284 284 284 283 283 283 284 284 285 285 285 285 285 285 285 286 287
282 281 281 282 282 282 282 282 282 282 283 283 283 283 282 282 282 283 284 284 284 284 283 283 284 283 285
281 281 281 281 282 282 282 282 282 281 282 282 282 282 281 281 281 281 281 283 282 283 283 282 282 282 282
281 281 281 282 282 282 281 281 281 282 282 282 282 282 282 282 281 281 280 281 282 282 281 282 282 283 283
281 281 281 281 282 281 281 281 281 282 282 281 281 281 282 282 281 280 281 281 281 281 281 281 282 283 283
281 281 280 281 281 281 281 281 281 281 281 281 280 281 280 281 281 281 280 280 281 281 280 280 281 282 282
281 281 280 280 280 281 281 281 280 280 280 280 279 279 275 278 280 280 281 281 281 280 280 280 280 281 280
Wind_Speed
6 11 10 6 3 3 7 6 2 1 2 2 1 1 2 1 2 4 5 5 4 5 5 6 8 8 11
9 9 7 5 3 5 4 2 2 3 0 2 4 4 1 1 1 2 2 4 5 6 7 7 4 4 4
7 8 5 4 3 5 5 4 4 3 2 1 1 0 2 0 2 3 2 2 3 4 3 4 4 4 4
5 5 4 4 2 4 6 5 4 3 4 4 2 2 1 1 0 1 2 3 2 3 4 6 6 7 7
5 3 5 5 6 7 7 5 5 4 4 6 5 4 3 3 2 4 5 5 5 5 5 5 5 6 7
8 6 7 7 7 7 5 4 3 5 2 4 2 2 3 3 2 5 5 2 3 6 8 8 8 8 8
10 8 8 8 8 7 6 5 3 3 3 2 2 1 3 2 2 3 2 2 3 3 2 4 5 6 7
5 6 5 6 6 5 5 4 3 3 1 1 2 2 4 4 4 1 2 4 4 3 2 1 0 1 2
3 3 3 3 5 5 5 4 3 4 2 0 1 2 2 4 7 4 3 1 3 3 1 1 3 4 5
4 4 3 4 6 6 7 7 4 2 3 1 1 2 1 4 5 5 5 5 4 5 3 3 3 6 7
5 4 4 5 4 3 4 5 6 3 3 1 2 2 2 3 4 6 5 5 5 7 8 8 7 6 9
5 5 6 6 5 4 3 4 4 4 5 5 3 3 4 4 6 3 6 10 12 8 9 8 6 8 9
7 6 5 5 5 7 6 7 8 6 6 7 6 7 8 7 5 10 10 2 12 7 6 17 15 13 14
9 7 7 8 7 6 7 7 8 7 7 4 6 9 13 16 16 18 15 8 7 14 17 16 14 12 13
10 9 8 8 8 8 9 8 8 6 8 7 8 11 13 16 18 20 20 20 19 16 15 18 18 14 14
14 13 12 11 9 9 10 12 12 12 12 12 10 9 9 13 18 23 18 18 13 12 12 14 24 22 20
14 15 13 12 11 12 12 12 13 13 13 12 11 10 3 4 9 15 20 17 13 16 21 22 25 30 27
Wind_Direction
143 173 170 190 195 286 307 307 270 271 265 321 329 59 74 136 149 135 116 102 135 125 129 116 124 169 173
157 180 198 200 239 268 273 241 191 129 306 269 277 32 16 257 164 178 145 123 124 125 131 139 149 153 181
169 189 190 195 245 266 188 146 151 158 193 200 329 155 139 333 254 263 246 191 165 174 192 199 190 188 198
178 173 183 179 198 167 179 179 191 220 232 222 201 179 86 271 8 286 229 234 214 204 206 224 229 226 223
179 175 183 173 195 187 187 197 218 217 237 238 242 238 216 236 294 308 294 270 254 240 232 234 243 237 235
188 197 202 207 192 190 181 191 227 219 270 271 216 220 211 246 316 324 316 309 265 243 239 239 241 245 249
211 212 208 205 203 200 199 196 221 245 298 190 182 186 193 235 266 326 23 38 36 15 252 239 243 250 254
194 200 203 201 217 223 207 200 234 233 201 155 202 231 256 261 191 198 57 36 14 22 41 122 314 255 254
158 158 178 214 230 220 209 199 210 194 181 131 213 306 288 183 192 200 216 295 335 13 17 230 221 242 248
191 189 203 212 238 244 234 213 198 188 192 142 232 359 201 193 200 219 245 244 243 238 262 270 280 277 280
216 218 218 219 231 216 216 234 222 213 177 217 192 313 324 302 260 250 249 234 253 267 270 272 272 281 285
231 230 232 231 228 221 256 262 249 245 234 242 261 229 278 288 267 279 243 274 282 246 294 259 267 283 265
229 236 238 231 223 236 256 266 280 269 258 259 260 269 262 238 272 284 313 233 278 247 222 306 299 289 281
239 243 236 227 228 245 273 269 264 262 252 249 278 274 269 265 269 274 276 271 262 282 298 293 289 288 286
232 231 234 235 234 247 258 257 253 261 276 289 291 276 269 266 269 266 273 274 282 291 299 299 289 291 286
234 236 238 233 236 245 249 252 257 265 273 287 293 288 284 279 260 262 267 271 293 298 295 293 299 299 298
245 241 239 241 234 241 246 251 257 264 271 280 276 264 236 261 278 254 261 274 291 288 291 292 291 296 300